Alabaster, AL

4:18 PM CDT on October 20, 2019 (GMT -0500)
Shelby County

Weather History for KEET - August, 2019

Change the Weather History Date:

Sunday, August 25, 2019

  Actual Average Record
Temperature  
Mean Temperature 77 °F 80 °F  
Max Temperature 82 °F 90 °F 99 °F (2011)
Min Temperature 72 °F 69 °F 55 °F (1969)
Cooling Degree Days 12 14  
Month to date cooling degree days 457 386  
Year to date cooling degree days 1746 1516  
Since 1 June cooling degree days 1349 1247  
Growing Degree Days 27 (Base 50)    
Moisture  
Dew Point 72 °F    
Average Humidity 87    
Maximum Humidity 100    
Minimum Humidity 74    
Precipitation  
Precipitation 0.32 in 0.16 in 5.41 in (2008)
Month to date precipitation 1.23 3.88  
Year to date precipitation 32.51 37.20  
Sea Level Pressure  
Sea Level Pressure 29.98 in    
Wind  
Wind Speed 4 mph (East)    
Max Wind Speed 9 mph    
Max Gust Speed 16 mph    
Visibility 9 miles    
Events Rain , Thunderstorm    
T = Trace of Precipitation, MM = Missing Value Source: NWS Daily Summary

Daily Weather History Graph

Daily Weather History Graph

Search for Another Location

Airport or City:

Astronomy

Aug. 25, 2019 Rise Set
Actual Time 6:16 AM CDT 7:21 PM CDT
Civil Twilight 5:51 AM CDT 7:46 PM CDT
Nautical Twilight 5:20 AM CDT 8:17 PM CDT
Astronomical Twilight 4:49 AM CDT 8:48 PM CDT
Moon 1:00 AM CDT (8/25) 3:31 PM CDT (8/25)
Length of Visible Light 13h 55m
Length of Day
13h 04m
Waning Crescent, 29% of the Moon is Illuminated
Aug 25
Waning Crescent
Aug 30
New
Sep 5
First Quarter
Sep 13
Full
Sep 21
Last Quarter

Hourly Weather History & Observations

Time (CDT) Temp. Heat Index Dew Point Humidity Pressure Visibility Wind Dir Wind Speed Gust Speed Precip Events Conditions
12:53 AM 75.9 °F - 72.0 °F 87% 29.98 in 10.0 mi Calm Calm - N/A   Clear
1:53 AM 75.0 °F - 72.0 °F 90% 29.97 in 10.0 mi Calm Calm - 0.00 in   Clear
2:53 AM 75.0 °F - 71.1 °F 87% 29.97 in 10.0 mi East 3.5 mph - N/A   Clear
3:01 AM 75.0 °F - 71.1 °F 87% 29.99 in 10.0 mi Variable 3.5 mph - N/A Thunderstorm Scattered Clouds
3:10 AM 75.0 °F - 71.1 °F 87% 29.99 in 10.0 mi East 4.6 mph - N/A   Mostly Cloudy
3:44 AM 75.0 °F - 72.0 °F 90% 29.99 in 9.0 mi Calm Calm - 0.01 in Rain Light Rain
3:53 AM 73.9 °F - 72.0 °F 93% 29.97 in 9.0 mi Calm Calm - 0.02 in Rain Light Rain
4:21 AM 73.9 °F - 72.0 °F 93% 30.01 in 6.0 mi Calm Calm - 0.02 in Rain , Thunderstorm Light Rain
4:53 AM 73.9 °F - 73.0 °F 97% 29.98 in 4.0 mi ESE 3.5 mph - 0.06 in Rain , Thunderstorm Rain
5:01 AM 73.9 °F - 73.0 °F 97% 29.99 in 4.0 mi NE 3.5 mph - 0.03 in Rain Rain
5:12 AM 73.0 °F - 72.0 °F 96% 29.99 in 4.0 mi ENE 3.5 mph - 0.05 in Rain Rain
5:19 AM 73.9 °F - 72.0 °F 93% 29.99 in 4.0 mi ENE 3.5 mph - 0.05 in Rain Rain
5:53 AM 73.0 °F - 72.0 °F 96% 29.97 in 7.0 mi Calm Calm - 0.13 in Rain Light Rain
6:16 AM 73.0 °F - 72.0 °F 96% 30.00 in 10.0 mi Variable 3.5 mph - 0.00 in   Scattered Clouds
6:29 AM 73.0 °F - 72.0 °F 96% 30.00 in 10.0 mi ESE 4.6 mph - 0.00 in   Mostly Cloudy
6:53 AM 73.0 °F - 72.0 °F 96% 29.99 in 10.0 mi East 5.8 mph - 0.00 in   Overcast
7:53 AM 73.9 °F - 72.0 °F 93% 30.01 in 10.0 mi Variable 3.5 mph - N/A   Overcast
8:03 AM 73.9 °F - 72.0 °F 93% 30.03 in 10.0 mi Variable 4.6 mph - N/A   Overcast
8:53 AM 75.0 °F - 72.0 °F 90% 30.01 in 10.0 mi Variable 4.6 mph - N/A   Overcast
9:53 AM 78.1 °F - 73.0 °F 84% 30.02 in 10.0 mi SE 5.8 mph - N/A   Overcast
10:53 AM 78.1 °F - 72.0 °F 81% 30.02 in 10.0 mi Variable 5.8 mph - N/A   Overcast
11:53 AM 79.0 °F - 72.0 °F 79% 30.01 in 10.0 mi Variable 5.8 mph - N/A   Overcast
12:35 PM 80.1 °F 83.8 °F 72.0 °F 76% 30.02 in 10.0 mi Variable 4.6 mph - N/A   Overcast
12:53 PM 81.0 °F 85.2 °F 72.0 °F 74% 29.99 in 10.0 mi East 6.9 mph - N/A   Overcast
1:53 PM 81.0 °F 84.9 °F 71.1 °F 72% 29.96 in 10.0 mi ESE 6.9 mph - N/A   Overcast
2:53 PM 79.0 °F - 71.1 °F 77% 29.95 in 10.0 mi Variable 6.9 mph - N/A   Overcast
3:18 PM 79.0 °F - 71.1 °F 77% 29.97 in 10.0 mi East 5.8 mph - N/A   Overcast
3:35 PM 79.0 °F - 71.1 °F 77% 29.96 in 10.0 mi Variable 5.8 mph - N/A   Overcast
3:53 PM 78.1 °F - 71.1 °F 79% 29.94 in 10.0 mi Variable 5.8 mph - N/A   Overcast
4:03 PM 78.1 °F - 71.1 °F 79% 29.95 in 10.0 mi Variable 5.8 mph - N/A   Mostly Cloudy
4:53 PM 77.0 °F - 71.1 °F 82% 29.95 in 10.0 mi East 4.6 mph - 0.00 in Rain Light Rain
5:53 PM 75.0 °F - 71.1 °F 87% 29.94 in 10.0 mi Variable 4.6 mph - 0.01 in Rain Light Rain
6:23 PM 75.0 °F - 71.1 °F 87% 29.97 in 10.0 mi East 5.8 mph - 0.00 in Rain Light Rain
6:53 PM 75.0 °F - 71.1 °F 87% 29.94 in 10.0 mi Variable 5.8 mph - 0.00 in Rain Light Rain
7:15 PM 75.0 °F - 71.1 °F 87% 29.97 in 10.0 mi East 5.8 mph - 0.00 in   Mostly Cloudy
7:36 PM 75.0 °F - 71.1 °F 87% 29.98 in 10.0 mi Variable 5.8 mph - 0.00 in   Overcast
7:53 PM 75.0 °F - 71.1 °F 87% 29.96 in 10.0 mi ESE 4.6 mph - 0.00 in   Overcast
8:04 PM 75.0 °F - 71.1 °F 87% 29.98 in 10.0 mi ESE 4.6 mph - N/A   Overcast
8:53 PM 73.9 °F - 72.0 °F 93% 29.97 in 9.0 mi Calm Calm - 0.02 in Rain Light Rain
9:53 PM 73.0 °F - 71.1 °F 93% 29.99 in 8.0 mi Variable 3.5 mph - 0.02 in Rain Light Rain
10:27 PM 73.0 °F - 71.1 °F 93% 30.01 in 8.0 mi Calm Calm - 0.01 in Rain Light Rain
10:38 PM 73.0 °F - 71.1 °F 93% 30.01 in 9.0 mi Variable 3.5 mph - 0.01 in   Overcast
10:48 PM 73.4 °F - 71.6 °F 94% 30.01 in 8.0 mi Variable 3.5 mph - 0.01 in Rain Light Rain
10:53 PM 73.0 °F - 71.1 °F 93% 29.99 in 8.0 mi Variable 4.6 mph - 0.01 in Rain Light Rain
11:50 PM 73.4 °F - 71.6 °F 94% 30.00 in 9.0 mi ESE 4.6 mph - 0.00 in   Overcast